weather.gov     
National Weather Service

Regional Weather Roundup
NWS Homepage
This page is being discontinued on March 12, 2014.
The same data is available at this site. Please update your bookmarks.
Thank you, and we apologize for the inconvenience.
Please send an email to SR-SRH.Webmaster@noaa.gov with any concerns.


Current Version
Previous Version:    01  02  03  04  05  06  07  08  09  10  11  12  13  14  15  16  17  18  19  20  21  22  23  24  25  26  27  28  29  30  
   31  32  33  34  35  36  37  38  39  40  41  42  43  44  45  46  47  48  49  50  51  52  53  54  55  56  57  58  59  60  
[Printable]
822
ASMX46 KSGX 231210
RWRMX

MEXICAN WEATHER ROUNDUP
NATIONAL WEATHER SERVICE SAN DIEGO CA
500 AM PDT WED JUL 23 2014

BAJA CALIFORNIA

CITY           SKY/WX    TMP DP  RH WIND       PRES   REMARKS
ENSENADA NW      N/A     66  32  28 CALM      29.93F
LA PAZ         PTCLDY    79  72  78 S7        29.86
TIJUANA        CLEAR     64  59  82 CALM      30.01F

NORTHWESTERN MEXICO

CITY           SKY/WX    TMP DP  RH WIND       PRES   REMARKS
CHIHUAHUA      MOCLDY    72  55  56 N13       30.25
HERMOSILLO     MOCLDY    86  61  42 CALM      29.87
JUAREZ         MOCLDY    73  46  38 CALM      30.18

NORTHEASTERN MEXICO

CITY           SKY/WX    TMP DP  RH WIND       PRES   REMARKS
MONTERREY      CLOUDY    79  70  73 E6        30.03R
NUEVO LAREDO   CLEAR     82  75  78 SE7       30.01
REYNOSA        CLEAR     77  73  88 SE7       30.01
SALTILLO       CLEAR     68  54  60 CALM      30.26
TORREON        PTCLDY    75  59  57 CALM      30.14R
VICTORIA       CLEAR     75  72  88 S9        30.02

WESTERN MEXICO

CITY           SKY/WX    TMP DP  RH WIND       PRES   REMARKS
AGUASCALIENTES PTCLDY    54  48  82 N2        30.32
COLIMA         CLEAR     75  70  83 N12       29.99R
DURANGO        PTCLDY    63  54  72 NW7       30.30R
GUADALAJARA    CLEAR     57  55  94 CALM      30.20
MAZATLAN       MOCLDY    79  72  78 N7        29.84S
PTO. VALLARTA  CLEAR     79  73  83 CALM      29.86S
TEPIC          CLEAR     70  68  94 CALM      30.08R
URUAPAN        CLEAR     59  57  94 CALM      30.20
ZACATECAS      PTCLDY    55  43  62 CALM      30.36R

CENTRAL MEXICO

CITY           SKY/WX    TMP DP  RH WIND       PRES   REMARKS
CUERNAVACA     MOCLDY    66  54  63 CALM      30.19
LEON           CLEAR     61  50  67 CALM      30.33R
MEXICO CITY    MOCLDY    57  48  72 W5        30.39R
MORELIA        CLEAR     52  52 100 CALM      30.29
POZA RICA      CLOUDY    73  73 100 N7        30.10R
PUEBLA         CLEAR     46  45  93 NW5       30.40R
QUERETARO      CLEAR     57  48  72 CALM      30.38S
S. LUIS POTOSI CLEAR     54  50  87 NW5       30.33R
TAMPICO        PTCLDY    77  73  88 CALM      30.01R
TOLUCA         PTCLDY    45  41  87 CALM      30.44R FOG
VERACRUZ       MOCLDY    73  72  94 CALM      29.99S

SOUTHERN MEXICO

CITY           SKY/WX    TMP DP  RH WIND       PRES   REMARKS
ACAPULCO       PTCLDY    81  77  89 NE3       29.84S
B. DE HUATULCO PTCLDY    75  70  83 CALM      29.83
MINATITLAN     MOCLDY    79  68  69 NW6       29.92
OAXACA         CLEAR     57  52  82 CALM      30.28R
PTO. ESCONDIDO CLEAR     77  72  83 E17       29.99
TAPACHULA      MOCLDY    79  73  83 CALM      29.85F
TUX. GUTIERREZ CLOUDY    70  68  94 NW3       29.99R
VILLAHERMOSA   MOCLDY    77  73  88 NE8       29.96
ZIHUATANEJO      N/A    N/A N/A N/A MISG        N/A

YUCATAN PENINSULA

CITY           SKY/WX    TMP DP  RH WIND       PRES   REMARKS
CAMPECHE       CLOUDY    73  73 100 CALM      29.99R
CANCUN         PTCLDY    75  73  94 NE3       30.04R
CHETUMAL       PTCLDY    82  75  78 E9        30.00
C. DEL CARMEN  PTCLDY    79  75  89 CALM      29.96
COZUMEL        MOCLDY    72  72 100 CALM      30.03R
MERIDA         PTCLDY    73  73 100 CALM      30.02R

$$





U.S. Dept. of Commerce
NOAA National Weather Service
1325 East West Highway
Silver Spring, MD 20910
E-mail: w-nws.webmaster@noaa.gov
Page last modified: May 16, 2007
NATIONAL WEATHER SERVICE: for Safety, for Work, for Fun - FOR LIFE